GW4057 Weather Reports


Display with metric or nautical units.
time (UTC)temp
F
wind
direction
speed
MPH
gust
MPH
rain 1hr
in
rain 24hr
in
rain mn
in
humidity
%
barometer
mb
20260506081204 45 104 0.0 0.0 0.05 1.14 0.22 99 1008.5
20260506080703 45 130 0.0 5.0 0.04 1.13 0.21 99 1008.5
20260506080204 45 52 0.0 7.0 0.04 1.13 0.21 99 1008.5
20260506073204 45 283 0.0 0.0 0.03 1.11 0.19 99 1007.8
20260506072705 45 13 0.0 0.0 0.02 1.10 0.18 99 1007.8
20260506072204 45 305 0.0 0.0 0.03 1.10 0.18 99 1007.8
20260506071203 45 283 0.0 0.0 0.03 1.09 0.17 99 1007.8
20260506070704 45 327 0.0 0.0 0.03 1.09 0.17 99 1008.1
20260506070204 45 352 0.0 3.0 0.04 1.09 0.17 99 1008.1
20260506062205 45 3 0.0 0.0 0.08 1.07 0.15 99 1008.1
20260506061704 45 43 0.0 0.0 0.08 1.07 0.15 99 1008.1
20260506061204 45 119 0.0 0.0 0.08 1.06 0.14 99 1008.1
20260506060704 45 77 0.0 3.0 0.08 1.06 0.14 99 1008.1
20260506050204 47 50 0.0 3.0 0.06 0.98 0.06 99 1008.8
20260506044704 47 115 0.0 0.0 0.07 0.97 0.05 99 1008.8
20260506044204 47 96 0.0 0.0 0.07 0.97 0.05 99 1008.8
20260506043703 46 49 0.0 3.0 0.08 0.97 0.05 99 1008.8
20260506042704 47 266 0.0 9.0 0.08 0.96 0.04 99 1008.8
20260506042204 47 343 2.0 9.0 0.07 0.95 0.03 99 1009.1
20260506041704 48 52 3.0 9.0 0.07 0.95 0.03 99 1009.1
20260506040204 48 49 0.0 0.0 0.07 0.92 0.00 99 1009.1
20260506035704 48 347 0.0 0.0 0.07 0.92 0.92 99 1009.1
20260506035204 48 330 0.0 0.0 0.07 0.91 0.91 99 1009.1
20260506034204 48 289 0.0 3.0 0.09 0.90 0.90 99 1009.5
20260506033704 49 293 2.0 3.0 0.09 0.89 0.89 99 1009.5
20260506033203 49 170 0.0 3.0 0.10 0.89 0.89 99 1009.5
20260506032705 49 331 0.0 0.0 0.12 0.89 0.89 99 1009.5
20260506032204 49 51 0.0 0.0 0.12 0.88 0.88 99 1009.5
20260506031204 49 100 0.0 0.0 0.13 0.87 0.87 99 1009.8
20260506030704 49 105 0.0 1.0 0.13 0.86 0.86 99 1009.5
20260506030204 49 237 0.0 3.0 0.13 0.85 0.85 99 1009.5
20260506025704 49 288 0.0 3.0 0.14 0.85 0.85 99 1009.1
20260506025204 49 76 1.0 3.0 0.15 0.84 0.84 99 1009.1
20260506024704 49 103 0.0 2.0 0.15 0.83 0.83 99 1009.1
20260506024204 49 222 0.0 2.0 0.14 0.81 0.81 99 1009.1
20260506023704 49 101 0.0 2.0 0.15 0.80 0.80 99 1009.1
20260506023204 49 86 2.0 3.0 0.16 0.79 0.79 99 1009.1
20260506022704 49 103 0.0 3.0 0.15 0.77 0.77 99 1008.8
20260506021704 49 39 2.0 3.0 0.15 0.75 0.75 99 1008.8
20260506021204 49 85 0.0 3.0 0.15 0.74 0.74 99 1008.5
20260506020704 49 31 2.0 3.0 0.14 0.73 0.73 99 1008.8
20260506020204 49 62 1.0 3.0 0.14 0.72 0.72 99 1009.1
20260506015704 49 74 0.0 3.0 0.16 0.71 0.71 99 1008.8
20260506015204 49 43 1.0 3.0 0.15 0.69 0.69 99 1009.1
20260506014704 49 69 0.0 2.0 0.14 0.68 0.68 99 1008.8
20260506014204 49 85 0.0 0.0 0.14 0.67 0.67 99 1008.8
20260506013704 49 100 0.0 0.0 0.12 0.65 0.65 99 1008.8
20260506013204 49 122 0.0 2.0 0.10 0.63 0.63 99 1008.8
20260506012704 49 77 0.0 3.0 0.09 0.62 0.62 99 1008.8
20260506012204 49 307 1.0 3.0 0.08 0.61 0.61 99 1008.8
20260506011704 49 177 2.0 3.0 0.07 0.60 0.60 99 1008.5
20260506011204 49 54 1.0 3.0 0.06 0.59 0.59 99 1008.8
20260506010704 49 15 0.0 0.0 0.06 0.59 0.59 99 1008.8
20260506010204 49 34 0.0 0.0 0.05 0.58 0.58 99 1008.8
20260506005704 49 80 0.0 0.0 0.02 0.55 0.55 99 1008.5
20260506005204 49 86 0.0 0.0 0.02 0.54 0.54 99 1008.5
20260506004704 49 118 0.0 0.0 0.03 0.54 0.54 99 1008.5
20260506004204 49 113 0.0 0.0 0.03 0.53 0.53 99 1008.5
20260506003704 49 83 0.0 0.0 0.04 0.53 0.53 99 1008.5
20260506003204 49 93 0.0 0.0 0.05 0.53 0.53 99 1008.5
20260506002704 49 85 0.0 0.0 0.06 0.53 0.53 99 1008.5
20260506001704 49 111 0.0 1.0 0.09 0.53 0.53 99 1008.5
20260506001204 49 95 0.0 2.0 0.10 0.53 0.53 99 1008.5
20260506000704 49 124 0.0 3.0 0.17 0.53 0.53 99 1008.5
20260506000205 49 141 1.0 3.0 0.19 0.53 0.53 99 1008.5
20260505235704 49 106 1.0 3.0 0.19 0.53 0.53 99 1008.5
20260505235203 49 113 1.0 3.0 0.19 0.52 0.52 99 1008.5
20260505234704 49 112 0.0 6.0 0.18 0.51 0.51 99 1008.8
20260505234204 49 262 1.0 6.0 0.17 0.50 0.50 99 1008.8
20260505233204 49 343 2.0 5.0 0.16 0.48 0.48 99 1008.5
20260505232204 49 342 2.0 7.0 0.16 0.46 0.46 99 1008.8
20260505231204 49 12 2.0 8.0 0.14 0.43 0.43 99 1009.1
20260505230704 49 315 5.0 8.0 0.07 0.36 0.36 99 1008.8
20260505230204 49 342 3.0 7.0 0.05 0.34 0.34 99 1008.5
20260505225705 50 357 3.0 7.0 0.06 0.34 0.34 99 1008.5
20260505225204 50 335 3.0 7.0 0.06 0.33 0.33 99 1008.5
20260505224703 50 296 3.0 7.0 0.07 0.33 0.33 99 1008.5
20260505223704 50 61 1.0 7.0 0.08 0.33 0.33 99 1008.5
20260505223204 51 25 3.0 7.0 0.07 0.32 0.32 99 1008.5
20260505222204 51 5 4.0 7.0 0.06 0.30 0.30 99 1008.5
20260505221704 51 1 2.0 7.0 0.14 0.30 0.30 99 1008.5
20260505221204 51 150 1.0 7.0 0.19 0.29 0.29 99 1008.5
20260505220704 51 75 1.0 6.0 0.22 0.29 0.29 99 1008.5
20260505220204 51 67 1.0 7.0 0.23 0.30 0.29 99 1008.8
20260505215704 51 109 3.0 7.0 0.22 0.29 0.28 99 1008.5
20260505215204 51 295 3.0 9.0 0.21 0.28 0.27 99 1008.5
20260505214704 52 21 3.0 9.0 0.21 0.27 0.26 99 1008.5
20260505214204 52 288 4.0 9.0 0.21 0.27 0.26 99 1008.5
20260505213204 54 273 3.0 12.0 0.21 0.26 0.25 99 1008.5
20260505212705 55 285 4.0 12.0 0.22 0.26 0.25 99 1008.1
20260505212204 56 290 7.0 12.0 0.21 0.25 0.24 98 1008.5
20260505211704 57 293 3.0 5.0 0.14 0.17 0.16 99 1008.1
20260505211204 57 197 0.0 2.0 0.08 0.11 0.10 99 1007.8
20260505210705 57 108 0.0 3.0 0.05 0.08 0.07 99 1007.8
20260505210204 57 311 0.0 3.0 0.04 0.07 0.06 99 1007.8
20260505205705 57 314 1.0 3.0 0.04 0.07 0.06 99 1007.8
20260505205204 57 315 0.0 3.0 0.04 0.07 0.06 99 1007.8
20260505204704 57 317 1.0 6.0 0.03 0.06 0.05 99 1007.8
20260505204205 57 313 0.0 6.0 0.03 0.06 0.05 98 1007.8
20260505203704 57 136 3.0 6.0 0.02 0.05 0.04 98 1008.1
20260505203204 57 313 3.0 6.0 0.02 0.05 0.04 97 1008.1
20260505202704 57 297 3.0 6.0 0.01 0.04 0.03 96 1008.1
20260505202204 57 315 3.0 9.0 0.01 0.04 0.03 96 1007.8
20260505201204 58 347 2.0 9.0 0.01 0.03 0.02 94 1007.8
20260505200704 58 7 3.0 7.0 0.01 0.03 0.02 94 1007.8
20260505195704 59 304 4.0 7.0 0.01 0.03 0.02 91 1007.9
20260505195204 60 328 3.0 8.0 0.01 0.03 0.02 90 1008.1
20260505194704 61 337 6.0 8.0 0.01 0.03 0.02 87 1008.1
20260505194204 61 312 6.0 8.0 0.01 0.03 0.02 86 1007.8
20260505193704 62 312 3.0 5.0 0.01 0.03 0.02 85 1007.8
20260505193204 63 141 1.0 3.0 0.01 0.03 0.02 84 1007.8
20260505192704 63 45 0.0 3.0 0.01 0.03 0.02 84 1008.1
20260505191204 63 298 2.0 8.0 0.00 0.02 0.01 81 1008.1
20260505190704 63 304 4.0 8.0 0.00 0.02 0.01 80 1008.1
20260505185704 64 248 5.0 10.0 0.00 0.02 0.01 77 1008.1
20260505185204 64 295 6.0 10.0 0.00 0.02 0.01 75 1008.1
20260505184704 65 229 5.0 10.0 0.00 0.02 0.01 74 1008.1
20260505184204 65 197 3.0 10.0 0.00 0.02 0.01 73 1008.1
20260505183704 65 236 6.0 10.0 0.00 0.02 0.01 73 1008.1
20260505183204 65 275 6.0 13.0 0.00 0.02 0.01 72 1008.1
20260505182704 65 262 5.0 13.0 0.00 0.02 0.01 72 1008.1
20260505182204 65 331 4.0 13.0 0.00 0.02 0.01 72 1008.1
20260505181204 65 219 3.0 13.0 0.00 0.02 0.01 72 1008.1
20260505180704 65 276 6.0 13.0 0.00 0.02 0.01 71 1008.1
20260505180204 65 297 8.0 13.0 0.00 0.02 0.01 70 1008.1
20260505175704 66 313 7.0 12.0 0.00 0.02 0.01 70 1007.8
20260505175204 66 324 9.0 12.0 0.00 0.02 0.01 70 1007.8
20260505174704 66 294 7.0 10.0 0.00 0.02 0.01 70 1007.8
20260505173704 66 288 5.0 12.0 0.00 0.02 0.01 69 1007.8
20260505173204 66 281 6.0 12.0 0.00 0.02 0.01 69 1007.8
20260505172704 66 281 9.0 12.0 0.00 0.02 0.01 69 1007.8
20260505172204 66 255 7.0 12.0 0.00 0.02 0.01 68 1007.8
20260505171704 66 276 7.0 13.0 0.00 0.02 0.01 68 1007.8
20260505171204 66 280 8.0 13.0 0.00 0.02 0.01 68 1007.8
20260505170705 66 311 10.0 13.0 0.00 0.02 0.01 67 1007.8
20260505170204 67 267 7.0 13.0 0.00 0.02 0.01 67 1007.8
20260505165204 67 273 6.0 17.0 0.00 0.02 0.01 67 1007.8
20260505164204 68 257 7.0 17.0 0.00 0.02 0.01 65 1007.5
20260505163704 68 182 10.0 14.0 0.00 0.02 0.01 65 1007.5
20260505163204 68 258 7.0 16.0 0.00 0.02 0.01 64 1007.5
20260505162704 68 263 7.0 16.0 0.00 0.02 0.01 64 1007.5
20260505161704 69 258 11.0 16.0 0.00 0.02 0.01 62 1007.5
20260505161204 70 243 10.0 16.0 0.00 0.02 0.01 62 1007.1
20260505160204 70 221 7.0 13.0 0.00 0.02 0.01 63 1007.1
20260505153204 68 270 11.0 15.0 0.00 0.02 0.01 63 1006.5
20260505152704 68 280 10.0 14.0 0.00 0.02 0.01 64 1006.8
20260505152204 69 201 8.0 13.0 0.00 0.02 0.01 64 1006.8
20260505151704 68 244 5.0 14.0 0.00 0.02 0.01 68 1006.8
20260505151204 67 251 9.0 17.0 0.00 0.02 0.01 66 1006.8
20260505150704 67 183 3.0 17.0 0.00 0.02 0.01 67 1006.8
20260505150204 66 231 13.0 17.0 0.00 0.02 0.01 66 1007.1
20260505140204 65 250 7.0 13.0 0.00 0.02 0.01 72 1006.7
20260505124704 62 274 4.0 12.0 0.00 0.02 0.01 78 1006.4
20260505124205 62 246 7.0 12.0 0.00 0.02 0.01 78 1006.4
20260505122704 62 177 5.0 13.0 0.01 0.02 0.01 77 1006.1
20260505122204 62 253 5.0 10.0 0.01 0.02 0.01 77 1006.1
20260505121705 62 240 7.0 10.0 0.01 0.02 0.01 77 1006.1
20260505121204 61 208 3.0 10.0 0.01 0.02 0.01 77 1006.1
20260505120704 61 257 7.0 10.0 0.01 0.02 0.01 77 1005.8
20260505120204 61 216 3.0 9.0 0.01 0.02 0.01 78 1005.5
20260505115205 61 218 4.0 13.0 0.01 0.02 0.01 79 1005.8
20260505114704 61 210 4.0 13.0 0.01 0.02 0.01 79 1005.8
20260505114205 61 221 3.0 13.0 0.01 0.02 0.01 79 1005.8
20260505113704 61 271 8.0 15.0 0.01 0.02 0.01 78 1005.8
20260505113205 62 243 9.0 15.0 0.01 0.02 0.01 76 1005.5
20260505112704 63 285 10.0 15.0 0.00 0.01 0.00 73 1005.4
20260505111704 64 222 10.0 14.0 0.00 0.01 0.00 68 1005.4
20260505111204 64 194 7.0 14.0 0.00 0.01 0.00 69 1005.4
20260505110705 64 273 6.0 12.0 0.00 0.01 0.00 69 1005.4
20260505110204 64 223 6.0 15.0 0.00 0.01 0.00 69 1005.4
20260505102204 65 230 6.0 18.0 0.00 0.01 0.00 67 1005.1
20260505101704 65 246 5.0 18.0 0.00 0.01 0.00 67 1004.7
20260505101204 65 200 9.0 18.0 0.00 0.01 0.00 67 1004.7
20260505100705 65 261 7.0 17.0 0.00 0.01 0.00 67 1004.7
20260505100204 65 259 7.0 15.0 0.00 0.01 0.00 66 1004.4
20260505095204 65 245 10.0 13.0 0.00 0.01 0.00 66 1004.1
20260505094704 65 5 9.0 12.0 0.00 0.01 0.00 66 1004.1
20260505094204 65 231 5.0 12.0 0.00 0.01 0.00 67 1004.1
20260505093704 65 251 8.0 14.0 0.00 0.01 0.00 67 1004.1
20260505093205 65 212 6.0 14.0 0.00 0.01 0.00 67 1004.1
20260505092704 65 219 6.0 14.0 0.00 0.01 0.00 67 1003.7
20260505092204 65 210 7.0 14.0 0.00 0.01 0.00 67 1003.7
20260505091704 65 243 8.0 12.0 0.00 0.01 0.00 68 1003.7
20260505091204 65 214 4.0 9.0 0.00 0.01 0.00 68 1003.7
20260505090204 65 224 6.0 12.0 0.00 0.01 0.00 67 1003.7
20260505084204 65 278 7.0 12.0 0.00 0.01 0.00 68 1004.1
20260505083704 65 251 5.0 12.0 0.00 0.01 0.00 68 1003.7
20260505083205 65 167 4.0 12.0 0.00 0.01 0.00 68 1004.1
20260505082704 65 249 6.0 12.0 0.00 0.01 0.00 68 1004.1
20260505082204 66 241 6.0 14.0 0.00 0.01 0.00 68 1004.1
20260505081704 65 274 9.0 14.0 0.00 0.01 0.00 68 1003.7